This is the latest recevied weather packets stored in our database for station/object VA2RBQ-7. If no packets are shown the sender has not sent any weather packets the latest 10 day(s).
| Time | Temp. | Humidity | Pressure | Rain* | Wind** | Luminosity | Snow |
|---|---|---|---|---|---|---|---|
| 1787870047 | 15.56° C | 55% | 1018.6 hPa | 0 mm | - | - | - |
| 1787869745 | 15.56° C | 55% | 1018.7 hPa | 0 mm | - | - | - |
| 1787869442 | 16.11° C | 55% | 1018.6 hPa | 0 mm | - | - | - |
| 1787869140 | 16.67° C | 55% | 1018.5 hPa | 0 mm | - | - | - |
| 1787868838 | 17.78° C | 55% | 1018.5 hPa | 0 mm | - | - | - |
| 1787868535 | 17.78° C | 55% | 1018.6 hPa | 0 mm | - | - | - |
| 1787868232 | 18.33° C | 55% | 1018.7 hPa | 0 mm | - | - | - |
| 1787867930 | 18.89° C | 55% | 1018.8 hPa | 0 mm | - | - | - |
| 1787867627 | 18.33° C | 55% | 1018.9 hPa | 0 mm | - | - | - |
| 1787867325 | 18.89° C | 55% | 1018.8 hPa | 0 mm | - | - | - |
| 1787867021 | 18.89° C | 55% | 1019.1 hPa | 0 mm | - | - | - |
| 1787866719 | 17.22° C | 55% | 1019.1 hPa | 0 mm | - | - | - |
| 1787866417 | 17.78° C | 55% | 1018.9 hPa | 0 mm | - | - | - |
| 1787866114 | 17.78° C | 56% | 1018.9 hPa | 0 mm | - | - | - |
| 1787865812 | 19.44° C | 56% | 1019.1 hPa | 0 mm | - | - | - |
| 1787865509 | 17.78° C | 56% | 1019.1 hPa | 0 mm | - | - | - |
| 1787865206 | 19.44° C | 56% | 1019.1 hPa | 0 mm | - | - | - |
| 1787864904 | 19.44° C | 57% | 1019.1 hPa | 0 mm | - | - | - |
| 1787864601 | 19.44° C | 57% | 1019.2 hPa | 0 mm | - | - | - |
| 1787864299 | 18.33° C | 57% | 1019.3 hPa | 0 mm | - | - | - |
| 1787863996 | 19.44° C | 57% | 1019.3 hPa | 0 mm | - | - | - |
| 1787863693 | 19.44° C | 57% | 1019.3 hPa | 0 mm | - | - | - |
| 1787863391 | 19.44° C | 57% | 1019.4 hPa | 0 mm | - | - | - |
| 1787863089 | 17.78° C | 57% | 1019.4 hPa | 0 mm | - | - | - |
| 1787862786 | 18.33° C | 58% | 1019.4 hPa | 0 mm | - | - | - |
* Rain since midnight (hover to see other rain measurements)
** Current wind speed in m/s (hover to see current wind gust speed)